Zurück zum Katalog

NOAA 16 DEB

AktivSSO
NORAD 41214·DEBRIS·🇺🇸 United States

Gestartet Sep 21, 2000 von Vandenberg Space Force Base

Loading…

Nächste Überflüge (nächste 24 Stunden)

TLE

AktuellSource: Space-Track

Epoche: Sep 14, 2026, 07:49 UTC

1 41214U 00055DT  26257.32624384  .00004753  00000-0  13008-2 0  9999
2 41214  98.8043  32.8764 0025869 174.0008 186.1498 14.47483907560034

Verfolge NOAA 16 DEB in Echtzeit mit AllMySat

Download on the App Store